User: anonymous   Login
Location: Unspecified
(0.0000°N, 0.0000°E)
Time: 00:34:16
(UTC+00:00)
Language:

Transit 2A - Orbit

View from above orbital plane
View from above orbital plane
View from above satellite
View from above satellite

Ground track
Ground track

The orbit data is extracted from the following two-line orbital elements,

1 00045U 60007A   15117.54330649  .00000302  00000-0  10115-3 0  9997
2 00045 066.6944 288.7260 0263106 243.1239 114.2750 14.33322029853534
Epoch (UTC): 27 April 2015 13:02:21
Eccentricity: 0.0263106
inclination: 66.6944°
perigee height: 592 km
apogee height: 969 km
right ascension of ascending node: 288.7260°
argument of perigee: 243.1239°
revolutions per day: 14.33322029
mean anomaly at epoch: 114.2750°
orbit number at epoch: 85353

The dashed part of the orbit path shows where the satellite is in the earth's shadow,  

DLR